Time,TemperatureF,DewpointF,PressureIn,WindDirection,WindDirectionDegrees,WindSpeedMPH,WindSpeedGustMPH,Humidity,HourlyPrecipIn,Conditions,Clouds,dailyrainin,SoftwareType,DateUTC
2013-05-19 00:02:00,-999.0,-99.9,30.07,SSW,195,13.0,18.0,-999,-99.99,,,-99.99,,2013-05-19 08:02:00,
2013-05-19 00:12:00,29.0,-99.9,30.07,SSW,193,14.0,18.0,-999,-99.99,,,-99.99,,2013-05-19 08:12:00,
2013-05-19 00:22:00,-999.0,-99.9,30.07,SSW,194,15.0,19.0,-999,-99.99,,,-99.99,,2013-05-19 08:22:00,
2013-05-19 00:32:00,-999.0,-99.9,30.07,SSW,192,14.0,19.0,-999,-99.99,,,-99.99,,2013-05-19 08:32:00,
2013-05-19 00:42:00,30.0,-99.9,30.08,SSW,193,17.0,20.0,-999,-99.99,,,-99.99,,2013-05-19 08:42:00,
2013-05-19 00:52:00,-999.0,-99.9,30.08,South,190,16.0,19.0,-999,-99.99,,,-99.99,,2013-05-19 08:52:00,
2013-05-19 01:02:00,-999.0,-99.9,30.08,South,187,15.0,19.0,-999,-99.99,,,-99.99,,2013-05-19 09:02:00,
2013-05-19 01:12:00,-999.0,-99.9,30.08,South,184,13.0,19.0,-999,-99.99,,,-99.99,,2013-05-19 09:12:00,
2013-05-19 01:21:00,-999.0,-99.9,30.09,South,183,14.0,19.0,-999,-99.99,,,-99.99,,2013-05-19 09:21:00,
2013-05-19 01:33:00,-999.0,-99.9,30.09,South,184,15.0,19.0,-999,-99.99,,,-99.99,,2013-05-19 09:33:00,
2013-05-19 01:43:00,30.0,-99.9,30.09,South,183,14.0,19.0,-999,-99.99,,,-99.99,,2013-05-19 09:43:00,
2013-05-19 01:53:00,-999.0,-99.9,30.09,South,188,15.0,19.0,-999,-99.99,,,-99.99,,2013-05-19 09:53:00,
2013-05-19 02:03:00,-999.0,-99.9,30.09,South,188,14.0,19.0,-999,-99.99,,,-99.99,,2013-05-19 10:03:00,
2013-05-19 02:13:00,30.0,-99.9,30.09,South,187,15.0,18.0,-999,-99.99,,,-99.99,,2013-05-19 10:13:00,
2013-05-19 02:23:00,-999.0,-99.9,30.10,South,190,15.0,18.0,-999,-99.99,,,-99.99,,2013-05-19 10:23:00,
2013-05-19 02:33:00,-999.0,-99.9,30.10,South,190,15.0,21.0,-999,-99.99,,,-99.99,,2013-05-19 10:33:00,
2013-05-19 02:42:00,30.0,-99.9,30.10,SSW,192,14.0,18.0,-999,-99.99,,,-99.99,,2013-05-19 10:42:00,
2013-05-19 02:53:00,-999.0,-99.9,30.10,South,191,15.0,18.0,-999,-99.99,,,-99.99,,2013-05-19 10:53:00,
2013-05-19 03:02:00,-999.0,-99.9,30.10,SSW,195,14.0,19.0,-999,-99.99,,,-99.99,,2013-05-19 11:02:00,
2013-05-19 03:12:00,-999.0,-99.9,30.10,SSW,195,13.0,17.0,-999,-99.99,,,-99.99,,2013-05-19 11:12:00,
2013-05-19 03:22:00,30.0,-99.9,30.10,SSW,196,12.0,17.0,-999,-99.99,,,-99.99,,2013-05-19 11:22:00,
2013-05-19 03:32:00,-999.0,-99.9,30.10,SSW,194,12.0,15.0,-999,-99.99,,,-99.99,,2013-05-19 11:32:00,
2013-05-19 03:42:00,30.0,-99.9,30.10,South,191,12.0,16.0,-999,-99.99,,,-99.99,,2013-05-19 11:42:00,
2013-05-19 03:53:00,-999.0,-99.9,30.11,South,187,13.0,15.0,-999,-99.99,,,-99.99,,2013-05-19 11:53:00,
2013-05-19 04:01:00,-999.0,-99.9,30.11,South,181,13.0,16.0,-999,-99.99,,,-99.99,,2013-05-19 12:01:00,
2013-05-19 04:12:00,30.0,-99.9,30.11,South,187,13.0,16.0,-999,-99.99,,,-99.99,,2013-05-19 12:12:00,
2013-05-19 04:22:00,-999.0,-99.9,30.12,SSW,198,13.0,16.0,-999,-99.99,,,-99.99,,2013-05-19 12:22:00,
2013-05-19 04:32:00,-999.0,-99.9,30.12,SSW,195,13.0,17.0,-999,-99.99,,,-99.99,,2013-05-19 12:32:00,
2013-05-19 04:42:00,-999.0,-99.9,30.12,SSW,194,11.0,16.0,-999,-99.99,,,-99.99,,2013-05-19 12:42:00,
2013-05-19 04:52:00,-999.0,-99.9,30.12,SSW,195,11.0,14.0,-999,-99.99,,,-99.99,,2013-05-19 12:52:00,
2013-05-19 05:01:00,-999.0,-99.9,30.12,South,190,11.0,15.0,-999,-99.99,,,-99.99,,2013-05-19 13:01:00,
2013-05-19 05:11:00,30.0,-99.9,30.12,South,189,13.0,16.0,-999,-99.99,,,-99.99,,2013-05-19 13:11:00,
2013-05-19 05:21:00,-999.0,-99.9,30.12,South,188,13.0,17.0,-999,-99.99,,,-99.99,,2013-05-19 13:21:00,
2013-05-19 05:32:00,-999.0,-99.9,30.12,South,185,15.0,18.0,-999,-99.99,,,-99.99,,2013-05-19 13:32:00,
2013-05-19 05:42:00,30.0,-99.9,30.13,South,188,14.0,18.0,-999,-99.99,,,-99.99,,2013-05-19 13:42:00,
2013-05-19 05:52:00,-999.0,-99.9,30.13,SSW,195,14.0,19.0,-999,-99.99,,,-99.99,,2013-05-19 13:52:00,
2013-05-19 06:02:00,-999.0,-99.9,30.13,SSW,193,13.0,17.0,-999,-99.99,,,-99.99,,2013-05-19 14:02:00,
2013-05-19 06:11:00,-999.0,-99.9,30.13,SSW,195,12.0,16.0,-999,-99.99,,,-99.99,,2013-05-19 14:11:00,
2013-05-19 06:21:00,-999.0,-99.9,30.13,SSW,196,14.0,19.0,-999,-99.99,,,-99.99,,2013-05-19 14:21:00,
2013-05-19 06:32:00,-999.0,-99.9,30.13,SSW,195,14.0,19.0,-999,-99.99,,,-99.99,,2013-05-19 14:32:00,
2013-05-19 06:42:00,30.0,-99.9,30.13,SSW,195,15.0,19.0,-999,-99.99,,,-99.99,,2013-05-19 14:42:00,
2013-05-19 06:52:00,-999.0,-99.9,30.13,SSW,198,16.0,21.0,-999,-99.99,,,-99.99,,2013-05-19 14:52:00,
2013-05-19 07:02:00,-999.0,-99.9,30.14,SSW,202,16.0,20.0,-999,-99.99,,,-99.99,,2013-05-19 15:02:00,
2013-05-19 07:12:00,30.0,-99.9,30.14,SSW,204,15.0,21.0,-999,-99.99,,,-99.99,,2013-05-19 15:12:00,
2013-05-19 07:22:00,-999.0,-99.9,30.14,SSW,206,14.0,20.0,-999,-99.99,,,-99.99,,2013-05-19 15:22:00,
2013-05-19 07:33:00,-999.0,-99.9,30.14,SSW,206,15.0,21.0,-999,-99.99,,,-99.99,,2013-05-19 15:33:00,
2013-05-19 07:43:00,-999.0,-99.9,30.14,SSW,208,17.0,21.0,-999,-99.99,,,-99.99,,2013-05-19 15:43:00,
2013-05-19 07:53:00,-999.0,-99.9,30.15,SSW,212,18.0,22.0,-999,-99.99,,,-99.99,,2013-05-19 15:53:00,
2013-05-19 08:03:00,-999.0,-99.9,30.15,SSW,212,18.0,23.0,-999,-99.99,,,-99.99,,2013-05-19 16:03:00,
2013-05-19 08:13:00,31.0,-99.9,30.15,SSW,212,17.0,23.0,-999,-99.99,,,-99.99,,2013-05-19 16:13:00,
2013-05-19 08:23:00,-999.0,-99.9,30.15,SSW,207,15.0,20.0,-999,-99.99,,,-99.99,,2013-05-19 16:23:00,
2013-05-19 08:33:00,-999.0,-99.9,30.16,SSW,211,15.0,20.0,-999,-99.99,,,-99.99,,2013-05-19 16:33:00,
2013-05-19 08:42:00,31.0,-99.9,30.16,SSW,208,14.0,21.0,-999,-99.99,,,-99.99,,2013-05-19 16:42:00,
2013-05-19 08:53:00,-999.0,-99.9,30.16,SSW,212,17.0,21.0,-999,-99.99,,,-99.99,,2013-05-19 16:53:00,
2013-05-19 09:02:00,-999.0,-99.9,30.17,SSW,211,16.0,20.0,-999,-99.99,,,-99.99,,2013-05-19 17:02:00,
2013-05-19 09:12:00,31.0,-99.9,30.17,SSW,209,15.0,20.0,-999,-99.99,,,-99.99,,2013-05-19 17:12:00,
2013-05-19 09:22:00,-999.0,-99.9,30.17,SSW,206,16.0,22.0,-999,-99.99,,,-99.99,,2013-05-19 17:22:00,
2013-05-19 09:32:00,-999.0,-99.9,30.18,SSW,210,17.0,21.0,-999,-99.99,,,-99.99,,2013-05-19 17:32:00,
2013-05-19 09:43:00,-999.0,-99.9,30.19,SW,216,20.0,23.0,-999,-99.99,,,-99.99,,2013-05-19 17:43:00,
2013-05-19 09:52:00,31.0,-99.9,30.19,SW,221,19.0,25.0,-999,-99.99,,,-99.99,,2013-05-19 17:52:00,
2013-05-19 10:02:00,-999.0,-99.9,30.20,SW,217,19.0,23.0,-999,-99.99,,,-99.99,,2013-05-19 18:02:00,
2013-05-19 10:12:00,31.0,-99.9,30.20,SW,215,19.0,22.0,-999,-99.99,,,-99.99,,2013-05-19 18:12:00,
2013-05-19 10:22:00,-999.0,-99.9,30.21,SSW,213,18.0,22.0,-999,-99.99,,,-99.99,,2013-05-19 18:22:00,
2013-05-19 10:32:00,-999.0,-99.9,30.21,SSW,211,15.0,19.0,-999,-99.99,,,-99.99,,2013-05-19 18:32:00,
2013-05-19 10:43:00,31.0,-99.9,30.21,SSW,210,13.0,18.0,-999,-99.99,,,-99.99,,2013-05-19 18:43:00,
2013-05-19 10:53:00,-999.0,-99.9,30.21,SSW,210,15.0,19.0,-999,-99.99,,,-99.99,,2013-05-19 18:53:00,
2013-05-19 11:01:00,-999.0,-99.9,30.22,SSW,208,15.0,20.0,-999,-99.99,,,-99.99,,2013-05-19 19:01:00,
2013-05-19 11:11:00,-999.0,-99.9,30.22,SSW,210,15.0,21.0,-999,-99.99,,,-99.99,,2013-05-19 19:11:00,
2013-05-19 11:22:00,-999.0,-99.9,30.22,SSW,212,17.0,22.0,-999,-99.99,,,-99.99,,2013-05-19 19:22:00,
2013-05-19 11:32:00,-999.0,-99.9,30.23,SSW,210,17.0,21.0,-999,-99.99,,,-99.99,,2013-05-19 19:32:00,
2013-05-19 11:42:00,32.0,-99.9,30.23,SW,215,18.0,23.0,-999,-99.99,,,-99.99,,2013-05-19 19:42:00,
2013-05-19 11:52:00,-999.0,-99.9,30.23,SW,217,19.0,23.0,-999,-99.99,,,-99.99,,2013-05-19 19:52:00,
2013-05-19 12:02:00,-999.0,-99.9,30.24,SSW,212,17.0,22.0,-999,-99.99,,,-99.99,,2013-05-19 20:02:00,
2013-05-19 12:11:00,32.0,-99.9,30.24,SSW,210,16.0,20.0,-999,-99.99,,,-99.99,,2013-05-19 20:11:00,
2013-05-19 12:22:00,32.0,-99.9,30.25,SSW,212,17.0,24.0,-999,-99.99,,,-99.99,,2013-05-19 20:22:00,
2013-05-19 12:32:00,-999.0,-99.9,30.26,SW,215,16.0,21.0,-999,-99.99,,,-99.99,,2013-05-19 20:32:00,
2013-05-19 12:42:00,-999.0,-99.9,30.26,SSW,209,16.0,22.0,-999,-99.99,,,-99.99,,2013-05-19 20:42:00,
2013-05-19 12:52:00,32.0,-99.9,30.27,SSW,211,15.0,21.0,-999,-99.99,,,-99.99,,2013-05-19 20:52:00,
2013-05-19 13:02:00,32.0,-99.9,30.28,SSW,207,17.0,21.0,-999,-99.99,,,-99.99,,2013-05-19 21:02:00,
2013-05-19 13:11:00,32.0,-99.9,30.28,SSW,208,16.0,21.0,-999,-99.99,,,-99.99,,2013-05-19 21:11:00,
2013-05-19 13:22:00,32.0,-99.9,30.29,SSW,206,15.0,20.0,-999,-99.99,,,-99.99,,2013-05-19 21:22:00,
2013-05-19 13:32:00,32.0,-99.9,30.29,SSW,201,16.0,21.0,-999,-99.99,,,-99.99,,2013-05-19 21:32:00,
2013-05-19 13:43:00,32.0,-99.9,30.29,SSW,203,15.0,20.0,-999,-99.99,,,-99.99,,2013-05-19 21:43:00,
2013-05-19 13:53:00,32.0,-99.9,30.30,SSW,197,15.0,20.0,-999,-99.99,,,-99.99,,2013-05-19 21:53:00,
2013-05-19 14:03:00,33.0,-99.9,30.31,SSW,197,15.0,20.0,-999,-99.99,,,-99.99,,2013-05-19 22:03:00,
2013-05-19 14:12:00,33.0,-99.9,30.31,SSW,202,14.0,20.0,-999,-99.99,,,-99.99,,2013-05-19 22:12:00,
2013-05-19 14:23:00,33.0,-99.9,30.32,SSW,202,14.0,19.0,-999,-99.99,,,-99.99,,2013-05-19 22:23:00,
2013-05-19 14:33:00,33.0,-99.9,30.32,SSW,196,13.0,17.0,-999,-99.99,,,-99.99,,2013-05-19 22:33:00,
2013-05-19 14:43:00,33.0,-99.9,30.32,SSW,196,13.0,17.0,-999,-99.99,,,-99.99,,2013-05-19 22:43:00,
2013-05-19 14:53:00,33.0,-99.9,30.33,SSW,195,14.0,18.0,-999,-99.99,,,-99.99,,2013-05-19 22:53:00,
2013-05-19 15:03:00,33.0,-99.9,30.34,South,184,13.0,17.0,-999,-99.99,,,-99.99,,2013-05-19 23:03:00,
2013-05-19 15:12:00,33.0,-99.9,30.34,South,186,13.0,16.0,-999,-99.99,,,-99.99,,2013-05-19 23:12:00,
2013-05-19 15:22:00,33.0,-99.9,30.35,South,182,14.0,16.0,-999,-99.99,,,-99.99,,2013-05-19 23:22:00,
2013-05-19 15:32:00,33.0,-99.9,30.35,South,180,13.0,17.0,-999,-99.99,,,-99.99,,2013-05-19 23:32:00,
2013-05-19 15:42:00,33.0,-99.9,30.35,South,176,11.0,15.0,-999,-99.99,,,-99.99,,2013-05-19 23:42:00,
2013-05-19 15:53:00,33.0,-99.9,30.35,South,175,13.0,15.0,-999,-99.99,,,-99.99,,2013-05-19 23:53:00,
2013-05-19 16:02:00,33.0,-99.9,30.35,SSE,168,12.0,15.0,-999,-99.99,,,-99.99,,2013-05-20 00:02:00,
2013-05-19 16:12:00,33.0,-99.9,30.35,SSE,162,13.0,15.0,-999,-99.99,,,-99.99,,2013-05-20 00:12:00,
2013-05-19 16:22:00,33.0,-99.9,30.36,SSE,160,14.0,16.0,-999,-99.99,,,-99.99,,2013-05-20 00:22:00,
2013-05-19 16:32:00,33.0,-99.9,30.36,SSE,162,13.0,16.0,-999,-99.99,,,-99.99,,2013-05-20 00:32:00,
2013-05-19 16:42:00,33.0,-99.9,30.36,SSE,162,14.0,16.0,-999,-99.99,,,-99.99,,2013-05-20 00:42:00,
2013-05-19 16:52:00,32.0,-99.9,30.36,SSE,160,15.0,17.0,-999,-99.99,,,-99.99,,2013-05-20 00:52:00,
2013-05-19 17:01:00,32.0,-99.9,30.35,SSE,161,16.0,19.0,-999,-99.99,,,-99.99,,2013-05-20 01:01:00,
2013-05-19 17:11:00,32.0,-99.9,30.35,SSE,159,16.0,19.0,-999,-99.99,,,-99.99,,2013-05-20 01:11:00,
2013-05-19 17:22:00,32.0,-99.9,30.35,SSE,159,15.0,19.0,-999,-99.99,,,-99.99,,2013-05-20 01:22:00,
2013-05-19 17:32:00,-999.0,-99.9,30.36,SSE,153,16.0,18.0,-999,-99.99,,,-99.99,,2013-05-20 01:32:00,
2013-05-19 17:42:00,-999.0,-99.9,30.36,SSE,147,17.0,19.0,-999,-99.99,,,-99.99,,2013-05-20 01:42:00,
2013-05-19 17:52:00,-999.0,-99.9,30.36,SSE,150,17.0,19.0,-999,-99.99,,,-99.99,,2013-05-20 01:52:00,
2013-05-19 18:02:00,-999.0,-99.9,30.36,SSE,150,16.0,19.0,-999,-99.99,,,-99.99,,2013-05-20 02:02:00,
2013-05-19 18:12:00,-999.0,-99.9,30.36,SSE,149,15.0,17.0,-999,-99.99,,,-99.99,,2013-05-20 02:12:00,
2013-05-19 18:22:00,-999.0,-99.9,30.36,SSE,151,14.0,17.0,-999,-99.99,,,-99.99,,2013-05-20 02:22:00,
2013-05-19 18:32:00,32.0,-99.9,30.36,SSE,155,16.0,19.0,-999,-99.99,,,-99.99,,2013-05-20 02:32:00,
2013-05-19 18:42:00,-999.0,-99.9,30.36,SSE,155,16.0,18.0,-999,-99.99,,,-99.99,,2013-05-20 02:42:00,
2013-05-19 18:52:00,-999.0,-99.9,30.36,SSE,157,15.0,21.0,-999,-99.99,,,-99.99,,2013-05-20 02:52:00,
2013-05-19 19:02:00,-999.0,-99.9,30.36,SSE,165,16.0,20.0,-999,-99.99,,,-99.99,,2013-05-20 03:02:00,
2013-05-19 19:12:00,-999.0,-99.9,30.35,SSE,163,15.0,20.0,-999,-99.99,,,-99.99,,2013-05-20 03:12:00,
2013-05-19 19:22:00,-999.0,-99.9,30.35,SSE,162,15.0,20.0,-999,-99.99,,,-99.99,,2013-05-20 03:22:00,
2013-05-19 19:33:00,-999.0,-99.9,30.35,SSE,160,15.0,18.0,-999,-99.99,,,-99.99,,2013-05-20 03:33:00,
2013-05-19 19:43:00,31.0,-99.9,30.35,SSE,163,14.0,18.0,-999,-99.99,,,-99.99,,2013-05-20 03:43:00,
2013-05-19 19:53:00,-999.0,-99.9,30.35,SSE,164,13.0,15.0,-999,-99.99,,,-99.99,,2013-05-20 03:53:00,
2013-05-19 20:03:00,-999.0,-99.9,30.35,SSE,161,13.0,16.0,-999,-99.99,,,-99.99,,2013-05-20 04:03:00,
2013-05-19 20:13:00,31.0,-99.9,30.35,SSE,162,12.0,15.0,-999,-99.99,,,-99.99,,2013-05-20 04:13:00,
2013-05-19 20:23:00,-999.0,-99.9,30.35,SSE,164,14.0,17.0,-999,-99.99,,,-99.99,,2013-05-20 04:23:00,
2013-05-19 20:33:00,-999.0,-99.9,30.35,SSE,163,13.0,15.0,-999,-99.99,,,-99.99,,2013-05-20 04:33:00,
2013-05-19 20:43:00,31.0,-99.9,30.35,SSE,163,12.0,15.0,-999,-99.99,,,-99.99,,2013-05-20 04:43:00,
2013-05-19 20:53:00,-999.0,-99.9,30.35,SSE,166,11.0,15.0,-999,-99.99,,,-99.99,,2013-05-20 04:53:00,
2013-05-19 21:02:00,-999.0,-99.9,30.36,South,175,13.0,15.0,-999,-99.99,,,-99.99,,2013-05-20 05:02:00,
2013-05-19 21:12:00,31.0,-99.9,30.36,South,176,12.0,14.0,-999,-99.99,,,-99.99,,2013-05-20 05:12:00,
2013-05-19 21:22:00,-999.0,-99.9,30.36,South,178,11.0,14.0,-999,-99.99,,,-99.99,,2013-05-20 05:22:00,
2013-05-19 21:32:00,-999.0,-99.9,30.36,South,177,11.0,13.0,-999,-99.99,,,-99.99,,2013-05-20 05:32:00,
2013-05-19 21:42:00,32.0,-99.9,30.36,South,175,11.0,13.0,-999,-99.99,,,-99.99,,2013-05-20 05:42:00,
2013-05-19 21:52:00,-999.0,-99.9,30.36,South,172,10.0,12.0,-999,-99.99,,,-99.99,,2013-05-20 05:52:00,
2013-05-19 22:01:00,-999.0,-99.9,30.36,South,173,10.0,12.0,-999,-99.99,,,-99.99,,2013-05-20 06:01:00,
2013-05-19 22:11:00,32.0,-99.9,30.36,South,173,9.0,13.0,-999,-99.99,,,-99.99,,2013-05-20 06:11:00,
2013-05-19 22:21:00,-999.0,-99.9,30.37,South,173,10.0,12.0,-999,-99.99,,,-99.99,,2013-05-20 06:21:00,
2013-05-19 22:32:00,-999.0,-99.9,30.37,South,173,10.0,13.0,-999,-99.99,,,-99.99,,2013-05-20 06:32:00,
2013-05-19 22:42:00,-999.0,-99.9,30.37,South,169,10.0,12.0,-999,-99.99,,,-99.99,,2013-05-20 06:42:00,
2013-05-19 22:52:00,31.0,-99.9,30.37,South,169,11.0,14.0,-999,-99.99,,,-99.99,,2013-05-20 06:52:00,
2013-05-19 23:02:00,-999.0,-99.9,30.37,SSE,163,13.0,15.0,-999,-99.99,,,-99.99,,2013-05-20 07:02:00,
2013-05-19 23:12:00,31.0,-99.9,30.37,SSE,159,12.0,15.0,-999,-99.99,,,-99.99,,2013-05-20 07:12:00,
2013-05-19 23:22:00,-999.0,-99.9,30.37,SSE,156,14.0,16.0,-999,-99.99,,,-99.99,,2013-05-20 07:22:00,
2013-05-19 23:32:00,-999.0,-99.9,30.37,SSE,156,15.0,17.0,-999,-99.99,,,-99.99,,2013-05-20 07:32:00,
2013-05-19 23:42:00,31.0,-99.9,30.37,SSE,156,15.0,17.0,-999,-99.99,,,-99.99,,2013-05-20 07:42:00,
2013-05-19 23:52:00,-999.0,-99.9,30.37,SSE,156,16.0,18.0,-999,-99.99,,,-99.99,,2013-05-20 07:52:00,